Location: Monroe
(41.9160°N, 83.3980°W)
Time: 06:07:00
(UTC-04:00)

ISS - Visible Passes

Search period start: 19 April 2014 00:00
Search period end: 29 April 2014 00:00
Orbit: 414 x 419 km, 51.6° (Epoch: 19 April)

Date Brightness Start Highest point End Pass type
(mag) Time Alt. Az. Time Alt. Az. Time Alt. Az.
19 Apr -3.1 22:16:29 10° NW 22:19:41 70° N 22:19:41 70° N visible
20 Apr -2.6 21:28:08 10° NW 21:31:23 45° NNE 21:33:12 22° E visible
20 Apr -0.5 23:05:12 10° W 23:06:06 15° W 23:06:06 15° W visible
21 Apr -2.5 22:16:26 10° WNW 22:19:37 41° SW 22:19:37 41° SW visible
22 Apr -3.2 21:27:50 10° WNW 21:31:11 73° SW 21:33:09 22° SE visible
23 Apr -0.9 22:17:00 10° W 22:19:00 15° SW 22:19:36 15° SW visible
24 Apr -1.5 21:27:44 10° WNW 21:30:35 26° SW 21:33:11 11° S visible
